deb Transtage 4

Debris
NORAD ID: 1829 Int'l Des: 1965-082 Owner: AFSSD Country: US
LEOCIRCULAR

About deb Transtage 4

Description loading...

Live Position

Loading 3D Globe...

Upcoming Passes

Altitude History

Altitude vs Time

uPlot chart will show altitude changes over time

Two-Line Element Set

1 1829U 65082DU 25312.82341543 .00004677 00000-0 49067-3 0 9997
2 1829 32.2881 206.2316 0024297 177.9336 182.1423 14.88121641187650
Epoch: Nov 8, 2025 • Age: 35 hours

Current Status

Altitude 597.3 km
Velocity 7.57 km/s
Sub-Earth Point -26.56°S, 79.9°W
Type debris

Large Constellations

Loading constellations...